Zurück zum Katalog

CZ-6A DEB

AktivSSO
NORAD 56639·DEBRIS·🇨🇳 China

Gestartet Nov 11, 2022 von Taiyuan Satellite Launch Center

Loading…

Nächste Überflüge (nächste 24 Stunden)

TLE

VeraltetSource: Space-Track

Epoche: Aug 15, 2026, 20:10 UTC

1 56639U 22151AFP 26227.84097028  .00000156  00000-0  79404-4 0  9997
2 56639  98.7423 264.9752 0039826 200.6234 159.3342 14.28710096172852

Verfolge CZ-6A DEB in Echtzeit mit AllMySat

Download on the App Store